Year,Month,Day,Hour,Minute,Value (Times are PST for temperature in C)
2018,09,26,00,00,10.20
2018,09,26,00,01,10.20
2018,09,26,00,02,10.20
2018,09,26,00,03,10.20
2018,09,26,00,04,10.20
2018,09,26,00,05,10.20
2018,09,26,00,06,10.20
2018,09,26,00,07,10.20
2018,09,26,00,08,10.20
2018,09,26,00,09,10.20
2018,09,26,00,10,10.20
2018,09,26,00,11,10.20
2018,09,26,00,12,10.10
2018,09,26,00,13,10.10
2018,09,26,00,14,10.10
2018,09,26,00,15,10.10
2018,09,26,00,16,10.00
2018,09,26,00,17,10.00
2018,09,26,00,18,10.00
2018,09,26,00,19,10.00
2018,09,26,00,20,10.00
2018,09,26,00,21,10.10
2018,09,26,00,22,10.00
2018,09,26,00,23,10.00
2018,09,26,00,24,10.00
2018,09,26,00,25,10.00
2018,09,26,00,26,10.00
2018,09,26,00,27,10.00
2018,09,26,00,28,9.90
2018,09,26,00,29,9.90
2018,09,26,00,30,9.90
2018,09,26,00,31,9.90
2018,09,26,00,32,9.90
2018,09,26,00,33,9.90
2018,09,26,00,34,9.90
2018,09,26,00,35,9.90
2018,09,26,00,36,9.90
2018,09,26,00,37,9.90
2018,09,26,00,38,9.90
2018,09,26,00,39,9.90
2018,09,26,00,40,9.90
2018,09,26,00,41,9.90
2018,09,26,00,42,9.80
2018,09,26,00,43,9.80
2018,09,26,00,44,9.80
2018,09,26,00,45,9.80
2018,09,26,00,46,9.80
2018,09,26,00,47,9.80
2018,09,26,00,48,9.80
2018,09,26,00,49,9.80
2018,09,26,00,50,9.70
2018,09,26,00,51,9.70
2018,09,26,00,52,9.70
2018,09,26,00,53,9.70
2018,09,26,00,54,9.70
2018,09,26,00,55,9.70
2018,09,26,00,56,9.70
2018,09,26,00,57,9.60
2018,09,26,00,58,9.60
2018,09,26,00,59,9.60
2018,09,26,01,00,9.60
2018,09,26,01,01,9.60
2018,09,26,01,02,9.60
2018,09,26,01,03,9.60
2018,09,26,01,04,9.50
2018,09,26,01,05,9.50
2018,09,26,01,06,9.50
2018,09,26,01,07,9.60
2018,09,26,01,08,9.60
2018,09,26,01,09,9.60
2018,09,26,01,10,9.60
2018,09,26,01,11,9.60
2018,09,26,01,12,9.50
2018,09,26,01,13,9.50
2018,09,26,01,14,9.50
2018,09,26,01,15,9.50
2018,09,26,01,16,9.40
2018,09,26,01,17,9.40
2018,09,26,01,18,9.40
2018,09,26,01,19,9.40
2018,09,26,01,20,9.40
2018,09,26,01,21,9.40
2018,09,26,01,22,9.40
2018,09,26,01,23,9.40
2018,09,26,01,24,9.40
2018,09,26,01,25,9.40
2018,09,26,01,26,9.40
2018,09,26,01,27,9.40
2018,09,26,01,28,9.40
2018,09,26,01,29,9.40
2018,09,26,01,30,9.40
2018,09,26,01,31,9.40
2018,09,26,01,32,9.40
2018,09,26,01,33,9.40
2018,09,26,01,34,9.40
2018,09,26,01,35,9.30
2018,09,26,01,36,9.30
2018,09,26,01,37,9.30
2018,09,26,01,38,9.30
2018,09,26,01,39,9.30
2018,09,26,01,40,9.30
2018,09,26,01,41,9.20
2018,09,26,01,42,9.20
2018,09,26,01,43,9.20
2018,09,26,01,44,9.20
2018,09,26,01,45,9.10
2018,09,26,01,46,9.10
2018,09,26,01,47,9.10
2018,09,26,01,48,9.10
2018,09,26,01,49,9.10
2018,09,26,01,50,9.00
2018,09,26,01,51,9.00
2018,09,26,01,52,9.00
2018,09,26,01,53,9.00
2018,09,26,01,54,9.00
2018,09,26,01,55,9.00
2018,09,26,01,56,9.00
2018,09,26,01,57,9.00
2018,09,26,01,58,9.00
2018,09,26,01,59,9.00
2018,09,26,02,00,9.00
2018,09,26,02,01,9.00
2018,09,26,02,02,9.00
2018,09,26,02,03,9.00
2018,09,26,02,04,9.00
2018,09,26,02,05,9.00
2018,09,26,02,06,9.00
2018,09,26,02,07,9.00
2018,09,26,02,08,9.00
2018,09,26,02,09,9.00
2018,09,26,02,10,9.00
2018,09,26,02,11,9.00
2018,09,26,02,12,9.00
2018,09,26,02,13,8.90
2018,09,26,02,14,8.90
2018,09,26,02,15,8.90
2018,09,26,02,16,8.90
2018,09,26,02,17,8.90
2018,09,26,02,18,8.80
2018,09,26,02,19,8.80
2018,09,26,02,20,8.80
2018,09,26,02,21,8.80
2018,09,26,02,22,8.80
2018,09,26,02,23,8.80
2018,09,26,02,24,8.80
2018,09,26,02,25,8.70
2018,09,26,02,26,8.70
2018,09,26,02,27,8.70
2018,09,26,02,28,8.70
2018,09,26,02,29,8.60
2018,09,26,02,30,8.60
2018,09,26,02,31,8.60
2018,09,26,02,32,8.60
2018,09,26,02,33,8.70
2018,09,26,02,34,8.70
2018,09,26,02,35,8.70
2018,09,26,02,36,8.70
2018,09,26,02,37,8.70
2018,09,26,02,38,8.70
2018,09,26,02,39,8.70
2018,09,26,02,40,8.70
2018,09,26,02,41,8.70
2018,09,26,02,42,8.70
2018,09,26,02,43,8.60
2018,09,26,02,44,8.60
2018,09,26,02,45,8.60
2018,09,26,02,46,8.70
2018,09,26,02,47,8.70
2018,09,26,02,48,8.70
2018,09,26,02,49,8.70
2018,09,26,02,50,8.70
2018,09,26,02,51,8.70
2018,09,26,02,52,8.70
2018,09,26,02,53,8.70
2018,09,26,02,54,8.70
2018,09,26,02,55,8.70
2018,09,26,02,56,8.70
2018,09,26,02,57,8.70
2018,09,26,02,58,8.70
2018,09,26,02,59,8.70
2018,09,26,03,00,8.70
2018,09,26,03,01,8.70
2018,09,26,03,02,8.70
2018,09,26,03,03,8.70
2018,09,26,03,04,8.70
2018,09,26,03,05,8.70
2018,09,26,03,06,8.70
2018,09,26,03,07,8.70
2018,09,26,03,08,8.70
2018,09,26,03,09,8.70
2018,09,26,03,10,8.70
2018,09,26,03,11,8.70
2018,09,26,03,12,8.70
2018,09,26,03,13,8.70
2018,09,26,03,14,8.70
2018,09,26,03,15,8.60
2018,09,26,03,16,8.60
2018,09,26,03,17,8.60
2018,09,26,03,18,8.60
2018,09,26,03,19,8.50
2018,09,26,03,20,8.50
2018,09,26,03,21,8.50
2018,09,26,03,22,8.50
2018,09,26,03,23,8.50
2018,09,26,03,24,8.50
2018,09,26,03,25,8.50
2018,09,26,03,26,8.50
2018,09,26,03,27,8.50
2018,09,26,03,28,8.50
2018,09,26,03,29,8.60
2018,09,26,03,30,8.60
2018,09,26,03,31,8.60
2018,09,26,03,32,8.60
2018,09,26,03,33,8.60
2018,09,26,03,34,8.50
2018,09,26,03,35,8.50
2018,09,26,03,36,8.50
2018,09,26,03,37,8.50
2018,09,26,03,38,8.50
2018,09,26,03,39,8.50
2018,09,26,03,40,8.50
2018,09,26,03,41,8.40
2018,09,26,03,42,8.40
2018,09,26,03,43,8.40
2018,09,26,03,44,8.40
2018,09,26,03,45,8.40
2018,09,26,03,46,8.40
2018,09,26,03,47,8.40
2018,09,26,03,48,8.40
2018,09,26,03,49,8.40
2018,09,26,03,50,8.40
2018,09,26,03,51,8.40
2018,09,26,03,52,8.40
2018,09,26,03,53,8.40
2018,09,26,03,54,8.40
2018,09,26,03,55,8.50
2018,09,26,03,56,8.50
2018,09,26,03,57,8.50
2018,09,26,03,58,8.50
2018,09,26,03,59,8.50
2018,09,26,04,00,8.50
2018,09,26,04,01,8.50
2018,09,26,04,02,8.50
2018,09,26,04,03,8.50
2018,09,26,04,04,8.50
2018,09,26,04,05,8.50
2018,09,26,04,06,8.50
2018,09,26,04,07,8.50
2018,09,26,04,08,8.50
2018,09,26,04,09,8.50
2018,09,26,04,10,8.50
2018,09,26,04,11,8.50
2018,09,26,04,12,8.40
2018,09,26,04,13,8.40
2018,09,26,04,14,8.40
2018,09,26,04,15,8.40
2018,09,26,04,16,8.30
2018,09,26,04,17,8.30
2018,09,26,04,18,8.30
2018,09,26,04,19,8.30
2018,09,26,04,20,8.30
2018,09,26,04,21,8.30
2018,09,26,04,22,8.30
2018,09,26,04,23,8.30
2018,09,26,04,24,8.30
2018,09,26,04,25,8.30
2018,09,26,04,26,8.30
2018,09,26,04,27,8.30
2018,09,26,04,28,8.30
2018,09,26,04,29,8.30
2018,09,26,04,30,8.20
2018,09,26,04,31,8.20
2018,09,26,04,32,8.20
2018,09,26,04,33,8.20
2018,09,26,04,34,8.10
2018,09,26,04,35,8.10
2018,09,26,04,36,8.10
2018,09,26,04,37,8.10
2018,09,26,04,38,8.10
2018,09,26,04,39,8.10
2018,09,26,04,40,8.00
2018,09,26,04,41,8.00
2018,09,26,04,42,8.00
2018,09,26,04,43,8.00
2018,09,26,04,44,7.90
2018,09,26,04,45,7.90
2018,09,26,04,46,7.90
2018,09,26,04,47,7.90
2018,09,26,04,48,7.90
2018,09,26,04,49,7.90
2018,09,26,04,50,8.00
2018,09,26,04,51,8.00
2018,09,26,04,52,8.00
2018,09,26,04,53,8.00
2018,09,26,04,54,8.00
2018,09,26,04,55,8.00
2018,09,26,04,56,7.90
2018,09,26,04,57,7.90
2018,09,26,04,58,7.90
2018,09,26,04,59,7.90
2018,09,26,05,00,7.90
2018,09,26,05,01,7.90
2018,09,26,05,02,7.90
2018,09,26,05,03,7.90
2018,09,26,05,04,7.90
2018,09,26,05,05,7.90
2018,09,26,05,06,7.90
2018,09,26,05,07,7.90
2018,09,26,05,08,7.90
2018,09,26,05,09,7.90
2018,09,26,05,10,7.90
2018,09,26,05,11,7.90
2018,09,26,05,12,7.90
2018,09,26,05,13,7.90
2018,09,26,05,14,7.90
2018,09,26,05,15,8.00
2018,09,26,05,16,8.00
2018,09,26,05,17,8.00
2018,09,26,05,18,8.00
2018,09,26,05,19,8.00
2018,09,26,05,20,8.00
2018,09,26,05,21,8.00
2018,09,26,05,22,8.00
2018,09,26,05,23,8.00
2018,09,26,05,24,8.00
2018,09,26,05,25,8.00
2018,09,26,05,26,8.00
2018,09,26,05,27,7.90
2018,09,26,05,28,7.90
2018,09,26,05,29,7.90
2018,09,26,05,30,7.90
2018,09,26,05,31,7.90
2018,09,26,05,32,7.90
2018,09,26,05,33,7.90
2018,09,26,05,34,7.90
2018,09,26,05,35,7.90
2018,09,26,05,36,7.90
2018,09,26,05,37,7.90
2018,09,26,05,38,7.90
2018,09,26,05,39,7.90
2018,09,26,05,40,7.90
2018,09,26,05,41,7.90
2018,09,26,05,42,7.90
2018,09,26,05,43,7.90
2018,09,26,05,44,7.90
2018,09,26,05,45,7.90
2018,09,26,05,46,8.00
2018,09,26,05,47,8.00
2018,09,26,05,48,8.00
2018,09,26,05,49,8.00
2018,09,26,05,50,8.00
2018,09,26,05,51,8.10
2018,09,26,05,52,8.10
2018,09,26,05,53,8.00
2018,09,26,05,54,8.00
2018,09,26,05,55,8.00
2018,09,26,05,56,8.00
2018,09,26,05,57,8.00
2018,09,26,05,58,7.90
2018,09,26,05,59,7.90
2018,09,26,06,00,7.90
2018,09,26,06,01,7.90
2018,09,26,06,02,7.80
2018,09,26,06,03,7.80
2018,09,26,06,04,7.80
2018,09,26,06,05,7.80
2018,09,26,06,06,7.80
2018,09,26,06,07,7.70
2018,09,26,06,08,7.70
2018,09,26,06,09,7.70
2018,09,26,06,10,7.70
2018,09,26,06,11,7.70
2018,09,26,06,12,7.70
2018,09,26,06,13,7.70
2018,09,26,06,14,7.70
2018,09,26,06,15,7.70
2018,09,26,06,16,7.70
2018,09,26,06,17,7.80
2018,09,26,06,18,7.80
2018,09,26,06,19,7.80
2018,09,26,06,20,7.80
2018,09,26,06,21,7.80
2018,09,26,06,22,7.80
2018,09,26,06,23,7.80
2018,09,26,06,24,7.80
2018,09,26,06,25,7.80
2018,09,26,06,26,7.80
2018,09,26,06,27,7.80
2018,09,26,06,28,7.80
2018,09,26,06,29,7.80
2018,09,26,06,30,7.80
2018,09,26,06,31,7.80
2018,09,26,06,32,7.80
2018,09,26,06,33,7.80
2018,09,26,06,34,7.70
2018,09,26,06,35,7.70
2018,09,26,06,36,7.70
2018,09,26,06,37,7.60
2018,09,26,06,38,7.60
2018,09,26,06,39,7.60
2018,09,26,06,40,7.60
2018,09,26,06,41,7.70
2018,09,26,06,42,7.70
2018,09,26,06,43,7.70
2018,09,26,06,44,7.70
2018,09,26,06,45,7.70
2018,09,26,06,46,7.70
2018,09,26,06,47,7.70
2018,09,26,06,48,7.70
2018,09,26,06,49,7.70
2018,09,26,06,50,7.70
2018,09,26,06,51,7.70
2018,09,26,06,52,7.80
2018,09,26,06,53,7.80
2018,09,26,06,54,7.80
2018,09,26,06,55,7.80
2018,09,26,06,56,7.70
2018,09,26,06,57,7.70
2018,09,26,06,58,7.70
2018,09,26,06,59,7.70
2018,09,26,07,00,7.60
2018,09,26,07,01,7.60
2018,09,26,07,02,7.60
2018,09,26,07,03,7.60
2018,09,26,07,04,7.50
2018,09,26,07,05,7.50
2018,09,26,07,06,7.50
2018,09,26,07,07,7.50
2018,09,26,07,08,7.50
2018,09,26,07,09,7.50
2018,09,26,07,10,7.50
2018,09,26,07,11,7.50
2018,09,26,07,12,7.40
2018,09,26,07,13,7.40
2018,09,26,07,14,7.40
2018,09,26,07,15,7.40
2018,09,26,07,16,7.30
2018,09,26,07,17,7.30
2018,09,26,07,18,7.30
2018,09,26,07,19,7.30
2018,09,26,07,20,7.30
2018,09,26,07,21,7.30
2018,09,26,07,22,7.30
2018,09,26,07,23,7.30
2018,09,26,07,24,7.40
2018,09,26,07,25,7.40
2018,09,26,07,26,7.40
2018,09,26,07,27,7.50
2018,09,26,07,28,7.50
2018,09,26,07,29,7.60
2018,09,26,07,30,7.60
2018,09,26,07,31,7.70
2018,09,26,07,32,7.70
2018,09,26,07,33,7.70
2018,09,26,07,34,7.70
2018,09,26,07,35,7.70
2018,09,26,07,36,7.80
2018,09,26,07,37,7.80
2018,09,26,07,38,7.80
2018,09,26,07,39,7.80
2018,09,26,07,40,7.90
2018,09,26,07,41,7.90
2018,09,26,07,42,7.90
2018,09,26,07,43,8.00
2018,09,26,07,44,8.00
2018,09,26,07,45,8.10
2018,09,26,07,46,8.10
2018,09,26,07,47,8.10
2018,09,26,07,48,8.20
2018,09,26,07,49,8.20
2018,09,26,07,50,8.20
2018,09,26,07,51,8.20
2018,09,26,07,52,8.20
2018,09,26,07,53,8.30
2018,09,26,07,54,8.30
2018,09,26,07,55,8.30
2018,09,26,07,56,8.30
2018,09,26,07,57,8.30
2018,09,26,07,58,8.30
2018,09,26,07,59,8.40
2018,09,26,08,00,8.40
2018,09,26,08,01,8.40
2018,09,26,08,02,8.50
2018,09,26,08,03,8.50
2018,09,26,08,04,8.60
2018,09,26,08,05,8.60
2018,09,26,08,06,8.70
2018,09,26,08,07,8.70
2018,09,26,08,08,8.80
2018,09,26,08,09,8.80
2018,09,26,08,10,8.90
2018,09,26,08,11,8.90
2018,09,26,08,12,8.90
2018,09,26,08,13,8.90
2018,09,26,08,14,8.90
2018,09,26,08,15,9.00
2018,09,26,08,16,9.00
2018,09,26,08,17,9.10
2018,09,26,08,18,9.10
2018,09,26,08,19,9.10
2018,09,26,08,20,9.20
2018,09,26,08,21,9.20
2018,09,26,08,22,9.30
2018,09,26,08,23,9.30
2018,09,26,08,24,9.40
2018,09,26,08,25,9.40
2018,09,26,08,26,9.50
2018,09,26,08,27,9.60
2018,09,26,08,28,9.70
2018,09,26,08,29,9.80
2018,09,26,08,30,9.90
2018,09,26,08,31,10.00
2018,09,26,08,32,10.10
2018,09,26,08,33,10.30
2018,09,26,08,34,10.40
2018,09,26,08,35,10.50
2018,09,26,08,36,10.70
2018,09,26,08,37,10.80
2018,09,26,08,38,10.90
2018,09,26,08,39,11.00
2018,09,26,08,40,11.20
2018,09,26,08,41,11.30
2018,09,26,08,42,11.40
2018,09,26,08,43,11.50
2018,09,26,08,44,11.60
2018,09,26,08,45,11.70
2018,09,26,08,46,11.80
2018,09,26,08,47,11.90
2018,09,26,08,48,12.00
2018,09,26,08,49,12.10
2018,09,26,08,50,12.20
2018,09,26,08,51,12.30
2018,09,26,08,52,12.30
2018,09,26,08,53,12.40
2018,09,26,08,54,12.50
2018,09,26,08,55,12.60
2018,09,26,08,56,12.60
2018,09,26,08,57,12.70
2018,09,26,08,58,12.80
2018,09,26,08,59,12.90
2018,09,26,09,00,12.90
2018,09,26,09,01,12.90
2018,09,26,09,02,13.00
2018,09,26,09,03,13.10
2018,09,26,09,04,13.10
2018,09,26,09,05,13.10
2018,09,26,09,06,13.20
2018,09,26,09,07,13.20
2018,09,26,09,08,13.30
2018,09,26,09,09,13.30
2018,09,26,09,10,13.30
2018,09,26,09,11,13.40
2018,09,26,09,12,13.40
2018,09,26,09,13,13.50
2018,09,26,09,14,13.60
2018,09,26,09,15,13.60
2018,09,26,09,16,13.70
2018,09,26,09,17,13.80
2018,09,26,09,18,13.90
2018,09,26,09,19,13.90
2018,09,26,09,20,13.90
2018,09,26,09,21,14.00
2018,09,26,09,22,14.10
2018,09,26,09,23,14.10
2018,09,26,09,24,14.20
2018,09,26,09,25,14.30
2018,09,26,09,26,14.30
2018,09,26,09,27,14.30
2018,09,26,09,28,14.30
2018,09,26,09,29,14.30
2018,09,26,09,30,14.30
2018,09,26,09,31,14.40
2018,09,26,09,32,14.40
2018,09,26,09,33,14.50
2018,09,26,09,34,14.50
2018,09,26,09,35,14.60
2018,09,26,09,36,14.60
2018,09,26,09,37,14.60
2018,09,26,09,38,14.60
2018,09,26,09,39,14.70
2018,09,26,09,40,14.70
2018,09,26,09,41,14.70
2018,09,26,09,42,14.70
2018,09,26,09,43,14.70
2018,09,26,09,44,14.70
2018,09,26,09,45,14.70
2018,09,26,09,46,14.80
2018,09,26,09,47,14.80
2018,09,26,09,48,14.80
2018,09,26,09,49,14.80
2018,09,26,09,50,14.80
2018,09,26,09,51,14.80
2018,09,26,09,52,14.80
2018,09,26,09,53,14.90
2018,09,26,09,54,14.90
2018,09,26,09,55,14.90
2018,09,26,09,56,14.90
2018,09,26,09,57,14.90
2018,09,26,09,58,14.90
2018,09,26,09,59,14.90
2018,09,26,10,00,14.90
2018,09,26,10,01,15.00
2018,09,26,10,02,15.00
2018,09,26,10,03,15.00
2018,09,26,10,04,15.00
2018,09,26,10,05,15.10
2018,09,26,10,06,15.10
2018,09,26,10,07,15.20
2018,09,26,10,08,15.20
2018,09,26,10,09,15.20
2018,09,26,10,10,15.20
2018,09,26,10,11,15.20
2018,09,26,10,12,15.20
2018,09,26,10,13,15.20
2018,09,26,10,14,15.30
2018,09,26,10,15,15.30
2018,09,26,10,16,15.40
2018,09,26,10,17,15.50
2018,09,26,10,18,15.60
2018,09,26,10,19,15.60
2018,09,26,10,20,15.60
2018,09,26,10,21,15.50
2018,09,26,10,22,15.40
2018,09,26,10,23,15.40
2018,09,26,10,24,15.40
2018,09,26,10,25,15.40
2018,09,26,10,26,15.40
2018,09,26,10,27,15.40
2018,09,26,10,28,15.40
2018,09,26,10,29,15.40
2018,09,26,10,30,15.40
2018,09,26,10,31,15.40
2018,09,26,10,32,15.40
2018,09,26,10,33,15.40
2018,09,26,10,34,15.40
2018,09,26,10,35,15.40
2018,09,26,10,36,15.40
2018,09,26,10,37,15.50
2018,09,26,10,38,15.50
2018,09,26,10,39,15.60
2018,09,26,10,40,15.60
2018,09,26,10,41,15.60
2018,09,26,10,42,15.70
2018,09,26,10,43,15.80
2018,09,26,10,44,15.80
2018,09,26,10,45,15.90
2018,09,26,10,46,15.90
2018,09,26,10,47,15.90
2018,09,26,10,48,16.00
2018,09,26,10,49,16.00
2018,09,26,10,50,16.10
2018,09,26,10,51,16.10
2018,09,26,10,52,16.10
2018,09,26,10,53,16.20
2018,09,26,10,54,16.20
2018,09,26,10,55,16.20
2018,09,26,10,56,16.20
2018,09,26,10,57,16.10
2018,09,26,10,58,16.10
2018,09,26,10,59,16.00
2018,09,26,11,00,16.00
2018,09,26,11,01,15.90
2018,09,26,11,02,15.90
2018,09,26,11,03,15.80
2018,09,26,11,04,15.80
2018,09,26,11,05,15.80
2018,09,26,11,06,15.80
2018,09,26,11,07,15.80
2018,09,26,11,08,15.80
2018,09,26,11,09,15.90
2018,09,26,11,10,15.90
2018,09,26,11,11,15.90
2018,09,26,11,12,15.90
2018,09,26,11,13,15.90
2018,09,26,11,14,16.00
2018,09,26,11,15,16.00
2018,09,26,11,16,16.10
2018,09,26,11,17,16.10
2018,09,26,11,18,16.20
2018,09,26,11,19,16.20
2018,09,26,11,20,16.30
2018,09,26,11,21,16.30
2018,09,26,11,22,16.40
2018,09,26,11,23,16.40
2018,09,26,11,24,16.40
2018,09,26,11,25,16.40
2018,09,26,11,26,16.40
2018,09,26,11,27,16.40
2018,09,26,11,28,16.30
2018,09,26,11,29,16.30
2018,09,26,11,30,16.30
2018,09,26,11,31,16.30
2018,09,26,11,32,16.30
2018,09,26,11,33,16.20
2018,09,26,11,34,16.20
2018,09,26,11,35,16.20
2018,09,26,11,36,16.20
2018,09,26,11,37,16.20
2018,09,26,11,38,16.20
2018,09,26,11,39,16.20
2018,09,26,11,40,16.20
2018,09,26,11,41,16.20
2018,09,26,11,42,16.30
2018,09,26,11,43,16.30
2018,09,26,11,44,16.40
2018,09,26,11,45,16.50
2018,09,26,11,46,16.50
2018,09,26,11,47,16.60
2018,09,26,11,48,16.60
2018,09,26,11,49,16.60
2018,09,26,11,50,16.70
2018,09,26,11,51,16.70
2018,09,26,11,52,16.70
2018,09,26,11,53,16.70
2018,09,26,11,54,16.70
2018,09,26,11,55,16.70
2018,09,26,11,56,16.60
2018,09,26,11,57,16.60
2018,09,26,11,58,16.50
2018,09,26,11,59,16.40
2018,09,26,12,00,16.50
2018,09,26,12,01,16.50
2018,09,26,12,02,16.60
2018,09,26,12,03,16.70
2018,09,26,12,04,16.80
2018,09,26,12,05,16.90
2018,09,26,12,06,16.90
2018,09,26,12,07,16.90
2018,09,26,12,08,16.90
2018,09,26,12,09,16.90
2018,09,26,12,10,16.90
2018,09,26,12,11,17.00
2018,09,26,12,12,17.00
2018,09,26,12,13,17.10
2018,09,26,12,14,17.10
2018,09,26,12,15,17.20
2018,09,26,12,16,17.20
2018,09,26,12,17,17.30
2018,09,26,12,18,17.30
2018,09,26,12,19,17.20
2018,09,26,12,20,17.20
2018,09,26,12,21,17.10
2018,09,26,12,22,17.10
2018,09,26,12,23,17.10
2018,09,26,12,24,17.10
2018,09,26,12,25,17.00
2018,09,26,12,26,17.10
2018,09,26,12,27,17.10
2018,09,26,12,28,17.20
2018,09,26,12,29,17.10
2018,09,26,12,30,17.10
2018,09,26,12,31,17.10
2018,09,26,12,32,17.10
2018,09,26,12,33,17.20
2018,09,26,12,34,17.20
2018,09,26,12,35,17.20
2018,09,26,12,36,17.20
2018,09,26,12,37,17.10
2018,09,26,12,38,17.20
2018,09,26,12,39,17.20
2018,09,26,12,40,17.20
2018,09,26,12,41,17.20
2018,09,26,12,42,17.30
2018,09,26,12,43,17.30
2018,09,26,12,44,17.30
2018,09,26,12,45,17.30
2018,09,26,12,46,17.30
2018,09,26,12,47,17.30
2018,09,26,12,48,17.30
2018,09,26,12,49,17.30
2018,09,26,12,50,17.30
2018,09,26,12,51,17.30
2018,09,26,12,52,17.30
2018,09,26,12,53,17.40
2018,09,26,12,54,17.50
2018,09,26,12,55,17.50
2018,09,26,12,56,17.60
2018,09,26,12,57,17.60
2018,09,26,12,58,17.60
2018,09,26,12,59,17.70
2018,09,26,13,00,17.70
2018,09,26,13,01,17.70
2018,09,26,13,02,17.70
2018,09,26,13,03,17.70
2018,09,26,13,04,17.70
2018,09,26,13,05,17.70
2018,09,26,13,06,17.70
2018,09,26,13,07,17.60
2018,09,26,13,08,17.50
2018,09,26,13,09,17.50
2018,09,26,13,10,17.50
2018,09,26,13,11,17.50
2018,09,26,13,12,17.50
2018,09,26,13,13,17.50
2018,09,26,13,14,17.50
2018,09,26,13,15,17.50
2018,09,26,13,16,17.50
2018,09,26,13,17,17.40
2018,09,26,13,18,17.40
2018,09,26,13,19,17.30
2018,09,26,13,20,17.30
2018,09,26,13,21,17.30
2018,09,26,13,22,17.30
2018,09,26,13,23,17.20
2018,09,26,13,24,17.20
2018,09,26,13,25,17.20
2018,09,26,13,26,17.20
2018,09,26,13,27,17.20
2018,09,26,13,28,17.20
2018,09,26,13,29,17.30
2018,09,26,13,30,17.30
2018,09,26,13,31,17.30
2018,09,26,13,32,17.30
2018,09,26,13,33,17.30
2018,09,26,13,34,17.40
2018,09,26,13,35,17.40
2018,09,26,13,36,17.40
2018,09,26,13,37,17.50
2018,09,26,13,38,17.50
2018,09,26,13,39,17.40
2018,09,26,13,40,17.50
2018,09,26,13,41,17.50
2018,09,26,13,42,17.50
2018,09,26,13,43,17.60
2018,09,26,13,44,17.60
2018,09,26,13,45,17.60
2018,09,26,13,46,17.60
2018,09,26,13,47,17.60
2018,09,26,13,48,17.70
2018,09,26,13,49,17.80
2018,09,26,13,50,17.80
2018,09,26,13,51,17.80
2018,09,26,13,52,17.90
2018,09,26,13,53,17.90
2018,09,26,13,54,17.90
2018,09,26,13,55,17.80
2018,09,26,13,56,17.80
2018,09,26,13,57,17.80
2018,09,26,13,58,17.70
2018,09,26,13,59,17.80
2018,09,26,14,00,17.80
2018,09,26,14,01,17.80
2018,09,26,14,02,17.80
2018,09,26,14,03,17.70
2018,09,26,14,04,17.80
2018,09,26,14,05,17.80
2018,09,26,14,06,17.80
2018,09,26,14,07,17.80
2018,09,26,14,08,17.80
2018,09,26,14,09,17.80
2018,09,26,14,10,17.80
2018,09,26,14,11,17.80
2018,09,26,14,12,17.80
2018,09,26,14,13,17.80
2018,09,26,14,14,17.90
2018,09,26,14,15,18.00
2018,09,26,14,16,18.10
2018,09,26,14,17,18.20
2018,09,26,14,18,18.30
2018,09,26,14,19,18.40
2018,09,26,14,20,18.50
2018,09,26,14,21,18.40
2018,09,26,14,22,18.40
2018,09,26,14,23,18.40
2018,09,26,14,24,18.40
2018,09,26,14,25,18.40
2018,09,26,14,26,18.40
2018,09,26,14,27,18.50
2018,09,26,14,28,18.50
2018,09,26,14,29,18.50
2018,09,26,14,30,18.50
2018,09,26,14,31,18.50
2018,09,26,14,32,18.60
2018,09,26,14,33,18.60
2018,09,26,14,34,18.60
2018,09,26,14,35,18.60
2018,09,26,14,36,18.70
2018,09,26,14,37,18.70
2018,09,26,14,38,18.70
2018,09,26,14,39,18.70
2018,09,26,14,40,18.80
2018,09,26,14,41,18.80
2018,09,26,14,42,18.90
2018,09,26,14,43,19.00
2018,09,26,14,44,18.90
2018,09,26,14,45,18.90
2018,09,26,14,46,18.80
2018,09,26,14,47,18.70
2018,09,26,14,48,18.60
2018,09,26,14,49,18.50
2018,09,26,14,50,18.50
2018,09,26,14,51,18.40
2018,09,26,14,52,18.40
2018,09,26,14,53,18.40
2018,09,26,14,54,18.40
2018,09,26,14,55,18.40
2018,09,26,14,56,18.40
2018,09,26,14,57,18.40
2018,09,26,14,58,18.40
2018,09,26,14,59,18.40
2018,09,26,15,00,18.40
2018,09,26,15,01,18.30
2018,09,26,15,02,18.20
2018,09,26,15,03,18.10
2018,09,26,15,04,18.10
2018,09,26,15,05,18.00
2018,09,26,15,06,18.00
2018,09,26,15,07,18.00
2018,09,26,15,08,18.10
2018,09,26,15,09,18.10
2018,09,26,15,10,18.20
2018,09,26,15,11,18.20
2018,09,26,15,12,18.30
2018,09,26,15,13,18.30
2018,09,26,15,14,18.30
2018,09,26,15,15,18.30
2018,09,26,15,16,18.30
2018,09,26,15,17,18.30
2018,09,26,15,18,18.30
2018,09,26,15,19,18.20
2018,09,26,15,20,18.10
2018,09,26,15,21,18.10
2018,09,26,15,22,18.00
2018,09,26,15,23,18.00
2018,09,26,15,24,18.00
2018,09,26,15,25,18.10
2018,09,26,15,26,18.00
2018,09,26,15,27,18.00
2018,09,26,15,28,17.90
2018,09,26,15,29,17.90
2018,09,26,15,30,17.90
2018,09,26,15,31,17.90
2018,09,26,15,32,17.90
2018,09,26,15,33,17.90
2018,09,26,15,34,18.00
2018,09,26,15,35,18.00
2018,09,26,15,36,18.00
2018,09,26,15,37,17.90
2018,09,26,15,38,17.80
2018,09,26,15,39,17.80
2018,09,26,15,40,17.70
2018,09,26,15,41,17.60
2018,09,26,15,42,17.50
2018,09,26,15,43,17.40
2018,09,26,15,44,17.40
2018,09,26,15,45,17.40
2018,09,26,15,46,17.50
2018,09,26,15,47,17.60
2018,09,26,15,48,17.60
2018,09,26,15,49,17.60
2018,09,26,15,50,17.70
2018,09,26,15,51,17.80
2018,09,26,15,52,17.80
2018,09,26,15,53,17.80
2018,09,26,15,54,17.80
2018,09,26,15,55,17.80
2018,09,26,15,56,17.80
2018,09,26,15,57,17.80
2018,09,26,15,58,17.90
2018,09,26,15,59,17.90
2018,09,26,16,00,17.90
2018,09,26,16,01,17.90
2018,09,26,16,02,17.90
2018,09,26,16,03,17.80
2018,09,26,16,04,17.70
2018,09,26,16,05,17.60
2018,09,26,16,06,17.50
2018,09,26,16,07,17.40
2018,09,26,16,08,17.30
2018,09,26,16,09,17.30
2018,09,26,16,10,17.20
2018,09,26,16,11,17.10
2018,09,26,16,12,17.10
2018,09,26,16,13,17.10
2018,09,26,16,14,17.00
2018,09,26,16,15,16.90
2018,09,26,16,16,16.80
2018,09,26,16,17,16.80
2018,09,26,16,18,16.80
2018,09,26,16,19,16.80
2018,09,26,16,20,16.80
2018,09,26,16,21,16.80
2018,09,26,16,22,16.80
2018,09,26,16,23,16.80
2018,09,26,16,24,16.80
2018,09,26,16,25,16.80
2018,09,26,16,26,16.80
2018,09,26,16,27,16.80
2018,09,26,16,28,16.90
2018,09,26,16,29,16.90
2018,09,26,16,30,17.00
2018,09,26,16,31,17.10
2018,09,26,16,32,17.20
2018,09,26,16,33,17.20
2018,09,26,16,34,17.20
2018,09,26,16,35,17.20
2018,09,26,16,36,17.30
2018,09,26,16,37,17.30
2018,09,26,16,38,17.30
2018,09,26,16,39,17.30
2018,09,26,16,40,17.40
2018,09,26,16,41,17.40
2018,09,26,16,42,17.40
2018,09,26,16,43,17.50
2018,09,26,16,44,17.50
2018,09,26,16,45,17.50
2018,09,26,16,46,17.50
2018,09,26,16,47,17.40
2018,09,26,16,48,17.30
2018,09,26,16,49,17.20
2018,09,26,16,50,17.10
2018,09,26,16,51,17.00
2018,09,26,16,52,16.90
2018,09,26,16,53,16.80
2018,09,26,16,54,16.80
2018,09,26,16,55,16.70
2018,09,26,16,56,16.70
2018,09,26,16,57,16.60
2018,09,26,16,58,16.60
2018,09,26,16,59,16.50
2018,09,26,17,00,16.50
2018,09,26,17,01,16.40
2018,09,26,17,02,16.30
2018,09,26,17,03,16.30
2018,09,26,17,04,16.30
2018,09,26,17,05,16.30
2018,09,26,17,06,16.20
2018,09,26,17,07,16.20
2018,09,26,17,08,16.20
2018,09,26,17,09,16.20
2018,09,26,17,10,16.20
2018,09,26,17,11,16.20
2018,09,26,17,12,16.20
2018,09,26,17,13,16.30
2018,09,26,17,14,16.30
2018,09,26,17,15,16.40
2018,09,26,17,16,16.50
2018,09,26,17,17,16.60
2018,09,26,17,18,16.70
2018,09,26,17,19,16.80
2018,09,26,17,20,16.80
2018,09,26,17,21,16.90
2018,09,26,17,22,16.90
2018,09,26,17,23,16.90
2018,09,26,17,24,16.90
2018,09,26,17,25,16.90
2018,09,26,17,26,16.90
2018,09,26,17,27,16.90
2018,09,26,17,28,16.90
2018,09,26,17,29,17.00
2018,09,26,17,30,17.00
2018,09,26,17,31,17.00
2018,09,26,17,32,17.00
2018,09,26,17,33,17.00
2018,09,26,17,34,17.10
2018,09,26,17,35,17.10
2018,09,26,17,36,17.10
2018,09,26,17,37,17.10
2018,09,26,17,38,17.00
2018,09,26,17,39,17.00
2018,09,26,17,40,17.00